GEFSNGP_850_meantemp_000.txt.gz
Temperature
7 7 7 7 7 7 7 7 6 7 7 7 4 4 5 6 7 10 11 11 11 10 8 8 7 7 7 6 7 6 5 5 4 3 2 2 1 1 -0 -1 -1 -1 -1 -0
4 6 6 5 6 6 6 6 6 6 5 2 3 4 4 3 4 6 10 10 9 7 7 7 7 6 6 5 5 5 4 3 2 2 1 0 -1 -3 -3 -2 -2 -2 -1 -1
2 5 4 3 5 6 6 6 5 4 3 1 3 4 4 3 2 3 7 8 7 5 4 4 5 4 4 4 4 3 3 2 1 -1 -1 -3 -4 -4 -4 -4 -3 -3 -2 -2
2 3 2 5 7 6 5 6 3 3 3 3 3 3 3 3 2 2 3 4 5 4 4 4 4 4 3 3 2 1 -0 -1 -2 -3 -3 -4 -5 -5 -4 -4 -4 -3 -3 -3
0 1 2 4 5 4 4 3 3 2 3 4 3 3 4 3 3 3 3 2 1 0 1 3 3 3 3 1 0 -1 -2 -2 -3 -4 -4 -5 -5 -5 -5 -4 -4 -4 -4 -4
-2 -1 -1 3 5 5 3 1 3 2 4 4 3 2 5 4 4 4 4 3 2 1 1 1 2 2 0 -0 -1 -2 -2 -3 -4 -4 -5 -6 -6 -6 -5 -5 -5 -5 -5 -5
-1 -2 -0 3 4 4 2 2 4 4 4 4 2 3 5 5 4 4 3 2 1 0 -0 -0 -1 -1 -1 -2 -3 -3 -4 -4 -5 -5 -6 -6 -6 -6 -6 -6 -6 -6 -6 -6
-1 -2 -2 3 2 1 3 4 4 4 4 4 4 4 4 5 5 4 3 2 1 -0 -1 -2 -4 -4 -3 -3 -4 -5 -5 -5 -5 -6 -7 -7 -7 -7 -7 -7 -7 -7 -7 -7
0 1 3 4 3 4 4 3 3 3 3 3 3 4 5 5 5 4 2 0 -1 -2 -3 -4 -5 -5 -4 -5 -5 -5 -6 -6 -7 -8 -8 -8 -8 -8 -8 -8 -8 -9 -9 -9
1 1 3 3 3 3 3 2 2 2 2 3 3 4 4 3 3 3 1 -1 -2 -3 -4 -5 -6 -6 -6 -5 -6 -6 -7 -8 -8 -8 -8 -9 -9 -9 -9 -9 -9 -10 -10 -10
0 2 2 3 3 2 2 1 -0 -0 0 1 2 2 3 3 2 1 -1 -2 -3 -4 -5 -6 -6 -7 -7 -6 -7 -8 -8 -9 -9 -9 -9 -9 -9 -9 -9 -10 -11 -11 -11 -11
1 2 2 2 2 0 -1 -2 -2 -2 -2 -1 -0 -0 0 2 1 -1 -2 -4 -5 -6 -6 -7 -7 -7 -7 -7 -8 -9 -9 -9 -9 -9 -9 -9 -9 -9 -9 -10 -10 -10 -11 -11
2 2 1 1 -1 -2 -3 -3 -3 -2 -2 -2 -1 -0 -1 -1 -2 -3 -4 -5 -6 -7 -8 -8 -7 -8 -8 -9 -9 -9 -9 -9 -9 -10 -9 -9 -9 -9 -9 -9 -10 -10 -10 -10
2 1 -1 -2 -4 -4 -3 -2 -1 -1 -1 -1 -1 -1 -1 -2 -3 -4 -6 -7 -7 -8 -8 -8 -8 -9 -9 -9 -10 -10 -10 -10 -10 -10 -10 -10 -10 -10 -11 -11 -10 -10 -10 -11
-0 -2 -4 -5 -4 -4 -2 -1 -1 -1 -1 -1 -2 -2 -3 -4 -5 -7 -7 -8 -9 -9 -9 -9 -10 -10 -10 -10 -10 -10 -10 -11 -11 -11 -11 -11 -11 -11 -12 -12 -12 -11 -11 -12
-3 -4 -5 -5 -4 -4 -2 -1 -1 -1 -2 -3 -3 -4 -5 -6 -7 -8 -8 -9 -9 -9 -10 -10 -11 -11 -11 -11 -11 -11 -11 -11 -11 -11 -12 -12 -12 -12 -12 -12 -12 -12 -12 -12
-6 -5 -5 -6 -5 -5 -4 -3 -2 -3 -4 -5 -6 -6 -7 -7 -8 -9 -10 -10 -10 -10 -11 -11 -11 -11 -11 -11 -12 -12 -12 -12 -12 -12 -12 -12 -12 -13 -13 -13 -13 -13 -13 -13
-6 -6 -6 -6 -6 -6 -5 -5 -5 -5 -6 -7 -7 -7 -8 -9 -9 -10 -10 -10 -11 -11 -11 -11 -11 -11 -12 -12 -12 -13 -13 -13 -13 -13 -13 -13 -13 -14 -13 -13 -13 -14 -14 -14
-6 -6 -6 -6 -6 -6 -6 -7 -7 -7 -7 -7 -8 -8 -9 -9 -10 -10 -11 -11 -11 -11 -11 -11 -11 -12 -12 -12 -13 -13 -14 -13 -13 -13 -13 -14 -14 -14 -14 -14 -14 -14 -15 -15
-6 -7 -7 -7 -7 -7 -7 -8 -8 -8 -8 -9 -9 -9 -9 -10 -11 -11 -11 -11 -11 -11 -12 -12 -12 -12 -13 -13 -13 -14 -14 -13 -13 -14 -14 -15 -14 -14 -15 -15 -15 -15 -15 -15
-6 -7 -7 -7 -8 -8 -8 -8 -8 -8 -9 -9 -9 -10 -10 -10 -11 -11 -11 -12 -12 -12 -13 -12 -13 -13 -13 -14 -14 -14 -14 -14 -14 -14 -15 -15 -15 -15 -15 -15 -15 -15 -15 -15
-7 -8 -8 -8 -8 -8 -8 -9 -9 -9 -9 -10 -10 -10 -11 -11 -11 -12 -12 -12 -12 -13 -13 -13 -13 -13 -14 -14 -14 -14 -14 -15 -15 -15 -15 -15 -15 -15 -15 -15 -15 -15 -15 -15
-7 -7 -8 -8 -8 -8 -9 -9 -9 -10 -10 -10 -11 -11 -11 -11 -12 -12 -12 -13 -14 -14 -14 -14 -14 -14 -15 -14 -14 -15 -15 -15 -15 -15 -15 -15 -15 -15 -15 -15 -15 -15 -15 -16
-7 -7 -8 -8 -8 -9 -9 -9 -10 -10 -10 -11 -11 -11 -12 -12 -12 -13 -13 -13 -14 -14 -14 -15 -15 -15 -15 -15 -15 -15 -15 -15 -15 -15 -15 -15 -15 -15 -15 -15 -15 -16 -16 -16
-7 -8 -8 -8 -9 -9 -9 -10 -11 -11 -11 -11 -12 -12 -12 -13 -13 -13 -14 -14 -14 -14 -14 -14 -14 -15 -15 -15 -15 -15 -15 -15 -15 -16 -15 -15 -15 -15 -15 -16 -16 -17 -16 -16
-8 -8 -8 -9 -9 -9 -10 -11 -11 -11 -11 -12 -12 -12 -13 -13 -14 -14 -14 -14 -14 -15 -15 -15 -15 -15 -15 -15 -15 -15 -15 -15 -15 -15 -15 -15 -15 -16 -16 -16 -17 -16 -15 -15
-8 -8 -9 -9 -9 -10 -11 -11 -11 -11 -12 -12 -13 -13 -13 -14 -14 -14 -14 -15 -15 -15 -15 -15 -15 -15 -15 -15 -15 -15 -15 -15 -15 -15 -15 -15 -16 -16 -16 -17 -17 -16 -15 -15

GEFSNGP_850_meantemp_006.txt.gz
Temperature
3 3 3 3 3 3 3 2 2 3 3 4 4 3 3 4 4 3 3 2 2 1 -0 -0 -0 0 1 2 2 2 2 4 4 4 4 3 2 2 1 -0 -1 -2 -1 -1
1 2 2 2 3 3 3 3 2 3 3 4 4 3 3 4 4 3 3 3 2 1 -0 -1 -1 -1 -0 0 0 1 2 2 3 2 2 1 0 -0 -1 -2 -3 -3 -2 -2
-1 0 1 2 3 4 3 2 2 1 2 3 2 2 3 3 3 3 3 3 3 2 1 0 0 -0 -0 -1 -1 -1 -0 0 1 -0 -1 -1 -2 -2 -3 -4 -4 -4 -3 -3
-1 -1 -1 1 2 2 2 2 2 2 2 2 2 3 3 3 3 3 3 3 3 2 2 1 0 0 -0 -1 -2 -2 -2 -2 -2 -3 -3 -3 -4 -4 -4 -5 -5 -5 -5 -4
-1 -2 -2 1 2 2 1 1 2 2 2 2 3 2 2 2 3 2 2 2 3 2 1 1 -0 -1 -1 -2 -3 -4 -4 -4 -4 -4 -5 -5 -5 -5 -5 -5 -6 -6 -6 -5
-3 -2 -2 1 2 2 1 0 2 2 1 2 1 -0 1 1 1 1 1 2 2 2 1 -0 -1 -1 -2 -3 -4 -5 -5 -5 -5 -5 -5 -6 -6 -6 -6 -6 -6 -7 -7 -6
-3 -4 -2 -0 1 1 -1 0 3 2 1 0 -1 -1 -1 -1 -1 -0 0 1 1 1 0 -1 -2 -3 -3 -4 -5 -6 -6 -6 -6 -6 -7 -7 -7 -7 -7 -7 -7 -7 -8 -8
-4 -5 -3 0 1 -0 1 2 2 0 -1 -2 -2 -2 -2 -2 -2 -1 -1 -0 0 -0 -1 -2 -3 -4 -4 -5 -6 -7 -7 -7 -7 -7 -8 -8 -8 -8 -8 -8 -8 -8 -8 -8
-3 -1 1 3 2 2 2 1 -1 -2 -2 -3 -3 -2 -2 -2 -2 -2 -1 -1 -1 -1 -2 -3 -4 -5 -5 -7 -7 -7 -7 -7 -8 -8 -9 -9 -9 -9 -9 -9 -9 -9 -9 -9
-3 -1 1 2 2 1 0 -1 -2 -3 -3 -3 -2 -2 -2 -2 -2 -2 -2 -1 -2 -3 -4 -5 -6 -6 -7 -8 -8 -8 -8 -9 -9 -9 -9 -9 -9 -9 -9 -9 -10 -10 -10 -9
-3 -1 0 1 1 -0 -2 -3 -4 -4 -3 -3 -2 -2 -2 -2 -2 -2 -2 -3 -4 -5 -6 -7 -7 -8 -8 -8 -8 -9 -10 -10 -10 -10 -10 -9 -9 -9 -9 -10 -11 -11 -11 -10
-2 1 -0 0 -0 -2 -4 -4 -4 -4 -3 -3 -3 -3 -3 -3 -4 -4 -5 -6 -6 -7 -7 -8 -9 -9 -9 -9 -9 -10 -10 -10 -10 -10 -10 -10 -10 -10 -10 -10 -11 -11 -11 -11
1 1 -0 -0 -1 -3 -4 -4 -4 -3 -3 -4 -4 -4 -5 -5 -6 -6 -7 -7 -8 -8 -9 -10 -10 -10 -10 -10 -10 -10 -10 -10 -10 -10 -10 -10 -10 -10 -10 -10 -11 -11 -11 -11
1 -0 -1 -1 -3 -4 -5 -5 -5 -5 -5 -6 -6 -6 -6 -7 -7 -8 -8 -9 -10 -10 -10 -11 -11 -10 -10 -11 -11 -11 -11 -11 -11 -11 -11 -11 -12 -12 -12 -11 -11 -11 -11 -11
1 -0 -1 -3 -4 -5 -6 -6 -6 -7 -7 -7 -7 -7 -8 -8 -9 -9 -10 -10 -10 -11 -11 -11 -11 -11 -11 -11 -12 -12 -12 -12 -12 -12 -12 -12 -13 -13 -13 -13 -13 -12 -12 -12
1 0 -1 -3 -5 -6 -6 -7 -7 -8 -8 -8 -8 -9 -9 -9 -9 -10 -10 -11 -11 -11 -11 -11 -12 -12 -12 -12 -12 -12 -12 -13 -13 -13 -13 -13 -13 -13 -14 -14 -14 -14 -14 -14
-1 -1 -3 -5 -6 -7 -7 -8 -8 -8 -8 -9 -9 -9 -9 -10 -10 -10 -11 -11 -11 -12 -11 -11 -11 -11 -12 -12 -12 -12 -13 -13 -14 -14 -14 -14 -14 -14 -14 -15 -15 -14 -14 -14
-1 -2 -4 -6 -7 -7 -8 -8 -8 -9 -9 -9 -9 -9 -9 -10 -10 -11 -11 -12 -12 -12 -12 -12 -12 -13 -13 -13 -13 -13 -14 -14 -14 -14 -14 -14 -15 -15 -15 -15 -15 -15 -15 -14
-1 -3 -5 -6 -7 -8 -8 -8 -9 -9 -9 -9 -10 -10 -10 -11 -11 -11 -12 -12 -12 -12 -12 -13 -13 -13 -13 -13 -14 -14 -14 -14 -15 -15 -15 -15 -15 -15 -15 -15 -15 -15 -15 -15
-2 -4 -6 -7 -8 -8 -8 -8 -9 -9 -9 -10 -10 -10 -10 -11 -11 -12 -12 -12 -13 -13 -13 -14 -14 -14 -14 -14 -15 -14 -15 -15 -15 -15 -15 -15 -15 -15 -15 -15 -16 -16 -16 -16
-3 -5 -6 -7 -8 -8 -8 -9 -9 -9 -10 -10 -10 -10 -11 -11 -12 -12 -12 -12 -13 -14 -14 -14 -14 -14 -15 -15 -15 -15 -15 -15 -15 -15 -15 -16 -16 -16 -16 -16 -16 -17 -17 -17
-4 -6 -7 -8 -8 -8 -9 -9 -10 -10 -11 -11 -11 -11 -11 -12 -12 -12 -13 -13 -14 -15 -14 -14 -15 -15 -15 -15 -15 -15 -15 -15 -16 -16 -16 -16 -16 -16 -17 -17 -17 -18 -18 -18
-5 -7 -8 -8 -8 -9 -9 -10 -10 -11 -11 -11 -11 -12 -12 -12 -13 -13 -13 -14 -15 -15 -15 -15 -15 -15 -15 -15 -15 -15 -15 -15 -15 -15 -16 -16 -16 -16 -17 -17 -17 -18 -17 -17
-6 -7 -8 -8 -9 -9 -10 -10 -11 -11 -11 -11 -12 -12 -13 -13 -13 -14 -14 -14 -15 -15 -15 -15 -15 -15 -15 -15 -15 -15 -15 -15 -15 -15 -16 -16 -16 -16 -16 -17 -17 -17 -17 -16
-7 -8 -8 -8 -9 -9 -10 -11 -11 -12 -12 -12 -12 -13 -13 -14 -14 -14 -15 -15 -15 -15 -15 -15 -15 -15 -15 -15 -15 -15 -15 -15 -15 -15 -15 -15 -16 -16 -16 -16 -16 -16 -16 -16
-7 -8 -8 -9 -9 -10 -11 -11 -11 -12 -12 -13 -13 -13 -14 -14 -14 -14 -15 -15 -15 -15 -16 -15 -15 -15 -15 -15 -15 -15 -15 -15 -15 -15 -15 -15 -15 -15 -15 -15 -15 -15 -15 -15
-8 -8 -9 -9 -10 -10 -11 -11 -12 -12 -13 -13 -13 -14 -14 -14 -14 -15 -15 -15 -15 -16 -16 -16 -15 -15 -15 -15 -15 -15 -15 -15 -15 -15 -15 -15 -15 -15 -15 -15 -15 -15 -15 -15

GEFSNGP_850_meantemp_012.txt.gz
Temperature
8 8 7 7 7 7 6 6 6 6 6 7 7 6 6 5 5 4 3 3 3 2 2 2 2 1 -0 -0 -0 -1 -1 -2 -2 -1 -1 -1 -1 -1 -1 -1 -1 -1 -2 -2
6 5 5 5 6 6 5 6 6 5 6 7 5 5 4 4 3 3 2 2 1 1 0 0 0 0 -0 -1 -1 -1 -2 -3 -3 -3 -3 -3 -3 -3 -3 -3 -3 -3 -3 -2
6 4 5 6 6 5 5 5 5 4 4 5 5 4 3 2 2 2 0 -0 -1 -1 -1 -1 -1 -1 -1 -1 -2 -2 -3 -4 -4 -4 -4 -4 -4 -4 -4 -4 -4 -4 -4 -3
4 4 3 7 5 4 4 5 5 5 5 4 3 2 2 2 1 -0 -1 -1 -2 -2 -2 -2 -1 -1 -2 -2 -2 -3 -4 -5 -5 -5 -5 -5 -5 -5 -5 -5 -5 -5 -5 -5
3 4 5 6 5 4 3 4 5 4 4 3 1 1 2 2 -1 -2 -2 -2 -2 -2 -2 -2 -2 -2 -3 -3 -4 -5 -5 -6 -6 -6 -6 -6 -6 -6 -6 -6 -6 -6 -6 -6
2 2 3 6 4 3 3 4 5 3 2 0 -0 0 1 -1 -2 -2 -2 -2 -2 -2 -3 -3 -3 -4 -4 -4 -5 -6 -6 -7 -7 -7 -7 -7 -7 -7 -7 -7 -7 -7 -7 -7
2 2 4 5 3 3 3 3 3 2 0 -1 -2 -2 -2 -2 -3 -3 -3 -3 -3 -3 -4 -4 -5 -5 -6 -6 -7 -7 -8 -8 -8 -8 -8 -8 -8 -8 -8 -8 -8 -8 -8 -8
2 1 3 4 4 4 3 3 2 0 -2 -3 -3 -3 -3 -3 -4 -5 -5 -5 -5 -5 -5 -6 -6 -6 -7 -7 -8 -8 -9 -9 -9 -9 -9 -9 -9 -9 -9 -9 -9 -9 -9 -9
3 4 5 4 3 3 2 1 -0 -2 -4 -4 -4 -4 -5 -5 -6 -7 -7 -7 -7 -7 -7 -7 -8 -8 -8 -9 -9 -10 -10 -10 -10 -10 -10 -10 -10 -10 -10 -10 -10 -10 -9 -9
2 3 3 3 3 2 0 -1 -3 -4 -5 -5 -6 -6 -6 -7 -8 -8 -8 -8 -9 -9 -9 -9 -9 -10 -10 -10 -10 -11 -11 -11 -11 -11 -10 -10 -10 -10 -11 -11 -11 -10 -10 -10
2 3 2 2 2 1 -1 -3 -4 -5 -6 -6 -7 -7 -8 -8 -9 -9 -9 -10 -10 -10 -11 -11 -11 -11 -11 -11 -11 -11 -11 -11 -11 -11 -11 -11 -11 -11 -11 -11 -11 -11 -11 -11
3 3 2 2 1 -1 -3 -4 -6 -6 -7 -7 -8 -8 -9 -9 -10 -10 -10 -11 -11 -12 -12 -12 -12 -11 -11 -11 -11 -11 -11 -12 -12 -12 -12 -12 -11 -11 -11 -11 -11 -12 -12 -12
1 1 0 -0 -1 -2 -4 -5 -6 -7 -7 -8 -8 -9 -9 -10 -10 -10 -11 -11 -12 -12 -12 -12 -12 -12 -12 -12 -12 -12 -12 -13 -13 -13 -13 -12 -12 -12 -12 -12 -12 -12 -12 -12
-0 -1 -1 -1 -2 -4 -5 -6 -7 -7 -8 -8 -9 -9 -9 -10 -10 -11 -11 -12 -12 -13 -12 -12 -12 -13 -12 -12 -13 -13 -13 -13 -13 -13 -13 -13 -13 -13 -13 -13 -13 -13 -13 -13
1 -0 -1 -2 -3 -5 -6 -7 -7 -8 -8 -9 -9 -9 -10 -10 -11 -11 -12 -12 -13 -13 -12 -12 -13 -13 -13 -13 -13 -14 -14 -14 -14 -14 -14 -14 -14 -14 -14 -14 -14 -14 -14 -14
1 1 -1 -2 -4 -6 -7 -8 -8 -8 -9 -9 -9 -9 -10 -11 -11 -12 -12 -12 -12 -13 -13 -13 -13 -14 -14 -14 -14 -14 -14 -14 -15 -15 -15 -15 -15 -15 -15 -15 -15 -15 -15 -15
0 -0 -2 -3 -5 -6 -7 -8 -8 -9 -9 -9 -9 -10 -10 -11 -12 -12 -12 -12 -13 -14 -14 -14 -14 -14 -14 -14 -14 -15 -15 -15 -15 -15 -15 -15 -15 -15 -15 -15 -15 -15 -15 -15
-0 -1 -2 -3 -5 -6 -7 -8 -8 -9 -9 -9 -10 -10 -10 -11 -11 -12 -12 -13 -13 -14 -14 -14 -14 -14 -14 -15 -15 -15 -15 -15 -15 -16 -16 -16 -16 -16 -16 -16 -16 -15 -15 -15
-1 -1 -3 -4 -5 -7 -8 -8 -8 -9 -9 -10 -10 -10 -11 -11 -12 -12 -13 -13 -14 -14 -14 -14 -15 -15 -15 -15 -15 -15 -15 -15 -16 -16 -16 -16 -16 -16 -16 -16 -16 -16 -16 -16
-1 -2 -3 -5 -6 -7 -8 -9 -9 -9 -10 -10 -11 -11 -11 -12 -12 -13 -13 -14 -15 -15 -15 -15 -15 -15 -15 -15 -15 -15 -15 -15 -16 -16 -16 -16 -16 -16 -16 -16 -16 -16 -16 -16
-2 -3 -4 -6 -7 -8 -9 -9 -10 -10 -11 -11 -11 -11 -12 -12 -13 -13 -14 -14 -15 -15 -15 -15 -15 -15 -15 -15 -15 -15 -15 -15 -15 -15 -15 -16 -16 -16 -16 -16 -16 -16 -16 -16
-3 -4 -5 -7 -8 -8 -9 -9 -10 -11 -11 -11 -11 -12 -12 -13 -13 -14 -14 -15 -15 -15 -15 -15 -15 -15 -15 -15 -15 -15 -15 -15 -15 -15 -15 -15 -16 -15 -15 -15 -16 -16 -16 -16
-3 -5 -6 -8 -8 -9 -9 -10 -10 -11 -11 -11 -12 -12 -13 -13 -14 -14 -14 -15 -15 -15 -15 -15 -15 -15 -15 -15 -15 -15 -15 -15 -15 -15 -15 -15 -15 -15 -15 -15 -15 -15 -15 -15
-5 -6 -7 -8 -9 -9 -10 -10 -11 -11 -11 -12 -12 -13 -13 -13 -14 -14 -15 -15 -15 -15 -15 -15 -15 -15 -15 -15 -15 -15 -15 -15 -15 -15 -15 -15 -15 -15 -15 -15 -15 -15 -15 -15
-6 -7 -8 -9 -9 -9 -10 -11 -11 -11 -11 -12 -13 -13 -13 -14 -14 -14 -15 -15 -15 -15 -15 -15 -15 -15 -15 -15 -15 -15 -15 -15 -15 -15 -15 -15 -15 -15 -15 -15 -15 -15 -14 -14
-6 -7 -8 -9 -9 -10 -10 -11 -11 -11 -12 -13 -13 -13 -14 -14 -14 -14 -15 -15 -15 -15 -15 -15 -15 -15 -14 -14 -14 -15 -15 -15 -15 -15 -15 -15 -15 -15 -15 -15 -15 -15 -15 -14
-7 -8 -9 -9 -10 -10 -11 -11 -11 -12 -12 -13 -13 -13 -14 -14 -14 -14 -14 -15 -15 -15 -15 -15 -14 -14 -14 -14 -14 -14 -14 -15 -15 -14 -14 -14 -15 -15 -15 -15 -15 -15 -15 -15

GEFSNGP_850_meantemp_018.txt.gz
Temperature
10 10 10 9 8 8 7 7 5 6 6 6 5 4 4 3 3 1 0 -0 -1 -2 -3 -3 -3 -3 -3 -3 -3 -3 -3 -3 -4 -5 -5 -5 -4 -4 -4 -3 -3 -2 -2 -2
8 9 9 8 8 8 7 6 6 5 5 5 5 4 3 2 1 -1 -1 -2 -3 -3 -4 -4 -4 -4 -4 -4 -4 -4 -5 -5 -6 -5 -5 -5 -5 -5 -4 -4 -4 -4 -3 -3
5 8 7 7 6 5 5 5 5 3 3 4 3 3 2 1 -1 -2 -2 -3 -4 -5 -6 -6 -6 -6 -6 -6 -6 -6 -7 -7 -7 -7 -6 -6 -6 -5 -5 -5 -5 -5 -5 -5
4 5 3 5 6 5 4 5 4 4 3 3 3 1 1 0 -2 -3 -4 -5 -6 -6 -7 -7 -7 -7 -7 -7 -7 -8 -8 -8 -8 -8 -7 -7 -6 -6 -6 -6 -6 -6 -6 -6
3 3 4 5 4 4 3 3 4 3 3 2 1 0 1 -1 -4 -4 -5 -6 -7 -8 -8 -8 -8 -8 -8 -8 -8 -8 -9 -9 -9 -8 -8 -8 -8 -7 -7 -7 -7 -7 -7 -7
3 2 2 4 4 5 4 3 4 3 2 1 -0 -1 -2 -3 -5 -5 -6 -7 -8 -8 -8 -8 -9 -9 -9 -9 -9 -9 -9 -9 -9 -9 -9 -9 -9 -9 -8 -8 -8 -8 -8 -8
2 2 3 4 5 5 2 2 3 3 1 -0 -2 -3 -4 -5 -6 -6 -7 -8 -8 -9 -10 -10 -10 -10 -10 -10 -10 -10 -10 -9 -9 -9 -9 -9 -9 -9 -9 -9 -9 -8 -8 -8
3 2 2 5 4 3 2 4 3 1 -0 -2 -3 -4 -5 -6 -7 -7 -8 -9 -9 -10 -10 -11 -11 -11 -11 -11 -10 -10 -10 -10 -10 -10 -10 -10 -10 -9 -9 -9 -9 -9 -9 -8
3 3 5 5 4 4 4 3 1 -0 -2 -3 -4 -5 -6 -7 -8 -8 -9 -10 -10 -10 -11 -11 -11 -11 -11 -11 -11 -11 -10 -10 -10 -10 -10 -10 -10 -10 -10 -10 -10 -10 -10 -9
3 4 5 5 4 4 3 2 0 -1 -3 -5 -6 -7 -7 -8 -9 -9 -10 -10 -11 -11 -11 -11 -11 -11 -12 -11 -11 -11 -11 -11 -11 -11 -11 -11 -11 -11 -11 -11 -11 -11 -11 -11
3 4 5 4 3 3 2 0 -1 -3 -5 -6 -7 -7 -8 -9 -10 -10 -10 -10 -11 -12 -12 -12 -12 -12 -12 -12 -12 -12 -12 -13 -12 -12 -12 -12 -12 -12 -12 -11 -11 -12 -12 -12
3 3 3 2 2 1 0 -1 -3 -4 -6 -7 -8 -8 -9 -10 -10 -10 -10 -11 -11 -12 -12 -12 -12 -13 -13 -13 -13 -13 -13 -13 -13 -13 -13 -13 -13 -13 -13 -12 -12 -12 -12 -12
3 2 2 2 1 0 -1 -2 -3 -5 -7 -8 -8 -9 -9 -9 -10 -10 -10 -11 -12 -12 -13 -13 -13 -13 -13 -14 -14 -14 -14 -14 -14 -14 -14 -14 -14 -14 -14 -13 -13 -13 -13 -13
2 2 1 1 1 -0 -1 -2 -4 -6 -7 -8 -8 -8 -9 -9 -10 -10 -11 -12 -12 -13 -13 -13 -13 -14 -14 -14 -14 -14 -14 -14 -14 -14 -15 -14 -14 -14 -14 -14 -14 -14 -14 -14
2 1 1 0 0 -1 -2 -3 -5 -7 -8 -8 -8 -8 -9 -9 -10 -11 -12 -12 -12 -13 -14 -14 -14 -14 -14 -14 -15 -15 -15 -15 -14 -15 -15 -15 -15 -15 -15 -15 -15 -15 -15 -14
1 1 -0 -1 -1 -2 -3 -5 -6 -7 -8 -8 -8 -9 -9 -10 -11 -12 -12 -12 -13 -13 -14 -14 -14 -14 -14 -14 -15 -15 -15 -15 -15 -15 -15 -15 -15 -15 -15 -15 -15 -15 -15 -15
-0 -1 -1 -2 -3 -4 -5 -6 -7 -8 -8 -8 -9 -9 -10 -11 -11 -11 -12 -12 -13 -14 -14 -14 -14 -14 -14 -14 -15 -15 -15 -15 -15 -15 -15 -15 -15 -15 -15 -15 -15 -15 -15 -15
-1 -1 -2 -3 -4 -5 -6 -7 -7 -8 -8 -9 -9 -10 -10 -11 -11 -12 -12 -12 -13 -13 -14 -14 -14 -14 -14 -14 -14 -15 -15 -15 -15 -15 -15 -15 -15 -15 -15 -15 -15 -15 -15 -15
-1 -2 -3 -3 -4 -5 -6 -7 -8 -8 -9 -9 -10 -10 -11 -11 -12 -12 -12 -13 -14 -14 -14 -14 -14 -14 -14 -14 -14 -14 -14 -15 -15 -15 -15 -15 -15 -15 -15 -15 -15 -15 -15 -15
-1 -2 -3 -4 -5 -6 -7 -8 -8 -9 -9 -10 -10 -11 -11 -11 -12 -12 -13 -13 -14 -14 -14 -14 -14 -14 -14 -14 -14 -14 -14 -14 -15 -15 -15 -15 -15 -15 -15 -15 -15 -15 -15 -15
-2 -3 -4 -5 -6 -7 -8 -8 -8 -9 -10 -10 -10 -11 -11 -12 -12 -13 -13 -13 -13 -13 -14 -14 -14 -14 -14 -14 -14 -14 -14 -15 -15 -15 -15 -15 -15 -15 -15 -15 -15 -15 -15 -15
-3 -3 -4 -5 -6 -7 -8 -8 -9 -9 -10 -10 -11 -11 -11 -12 -12 -12 -13 -13 -13 -13 -13 -13 -13 -14 -14 -14 -14 -14 -14 -15 -15 -15 -15 -15 -15 -15 -15 -15 -15 -15 -15 -15
-4 -4 -5 -6 -7 -8 -8 -9 -9 -10 -10 -11 -11 -11 -12 -12 -12 -12 -12 -12 -12 -12 -13 -12 -13 -14 -14 -14 -13 -13 -14 -15 -15 -15 -15 -16 -16 -16 -15 -15 -15 -15 -15 -15
-4 -5 -6 -7 -8 -8 -8 -9 -9 -10 -10 -11 -11 -12 -12 -12 -12 -12 -12 -12 -12 -12 -12 -12 -13 -13 -13 -12 -12 -12 -13 -14 -14 -15 -15 -15 -15 -15 -15 -15 -15 -15 -15 -15
-4 -5 -6 -7 -8 -8 -9 -9 -10 -10 -10 -11 -11 -11 -12 -12 -11 -11 -11 -11 -11 -11 -11 -11 -12 -12 -12 -11 -11 -12 -12 -13 -14 -14 -14 -14 -14 -14 -15 -15 -15 -15 -15 -15
-5 -6 -7 -7 -8 -8 -9 -9 -10 -10 -11 -11 -11 -11 -11 -11 -11 -11 -11 -11 -11 -11 -11 -11 -11 -11 -11 -11 -10 -11 -11 -11 -12 -12 -13 -13 -13 -13 -13 -13 -14 -14 -15 -15
-6 -6 -7 -8 -8 -9 -9 -10 -10 -10 -11 -11 -11 -11 -10 -10 -10 -10 -10 -10 -10 -10 -10 -10 -10 -10 -10 -10 -10 -10 -10 -11 -11 -12 -12 -12 -12 -12 -12 -12 -12 -13 -15 -15

GEFSNGP_850_meantemp_024.txt.gz
Temperature
6 6 5 5 4 5 4 3 2 2 1 1 -0 0 0 -1 -2 -3 -4 -5 -6 -7 -8 -8 -8 -8 -9 -9 -9 -9 -9 -9 -9 -9 -8 -8 -7 -7 -7 -6 -6 -6 -5 -5
4 4 4 3 3 3 3 3 2 1 1 1 1 0 -0 -2 -4 -4 -5 -6 -7 -8 -9 -9 -10 -10 -10 -10 -10 -10 -10 -9 -9 -9 -9 -9 -8 -8 -8 -7 -7 -7 -6 -6
2 2 3 1 2 3 3 2 2 0 0 1 -0 -0 -1 -3 -4 -5 -6 -7 -8 -9 -9 -10 -10 -11 -11 -10 -10 -10 -10 -10 -10 -10 -9 -9 -9 -9 -9 -8 -8 -8 -8 -7
1 1 2 2 3 3 3 2 2 1 0 0 -0 -1 -1 -4 -4 -5 -7 -8 -8 -9 -10 -10 -11 -11 -11 -10 -10 -10 -10 -10 -10 -10 -10 -10 -10 -10 -9 -9 -9 -9 -8 -8
-1 1 0 2 3 3 2 1 2 1 0 -0 -1 -1 -2 -4 -5 -6 -7 -8 -9 -10 -10 -11 -11 -11 -11 -11 -11 -10 -11 -11 -11 -11 -11 -11 -10 -10 -10 -10 -9 -9 -9 -9
-1 1 1 2 3 4 2 0 1 1 -1 -2 -3 -3 -3 -4 -6 -7 -8 -9 -9 -10 -10 -11 -11 -11 -11 -11 -11 -12 -12 -12 -12 -12 -12 -12 -11 -11 -11 -11 -10 -10 -9 -9
-0 -1 -1 2 3 2 -0 -0 2 1 -1 -2 -4 -4 -4 -6 -7 -8 -8 -9 -9 -10 -11 -11 -11 -11 -12 -12 -12 -12 -12 -12 -12 -13 -13 -13 -12 -12 -11 -11 -11 -11 -10 -10
-1 -2 -1 3 3 1 1 2 1 -0 -1 -3 -4 -5 -6 -7 -8 -8 -9 -9 -9 -10 -11 -11 -12 -12 -12 -13 -13 -13 -13 -13 -13 -13 -13 -13 -13 -13 -12 -12 -12 -11 -11 -11
-1 -0 2 3 2 2 1 1 0 -1 -2 -3 -4 -6 -7 -8 -8 -9 -9 -10 -10 -11 -11 -11 -12 -13 -13 -13 -13 -13 -13 -14 -14 -14 -14 -14 -14 -14 -13 -13 -12 -12 -12 -12
0 0 2 2 2 2 1 1 -0 -1 -2 -4 -5 -7 -7 -8 -9 -9 -10 -10 -11 -11 -11 -12 -12 -13 -13 -14 -14 -14 -14 -14 -14 -15 -14 -14 -14 -14 -14 -14 -13 -13 -13 -12
-0 1 2 2 2 1 1 -0 -1 -2 -3 -5 -6 -7 -8 -9 -9 -10 -10 -11 -11 -11 -12 -12 -13 -13 -14 -14 -14 -14 -14 -14 -15 -15 -15 -15 -15 -15 -15 -14 -14 -13 -14 -13
-1 1 1 2 1 1 -0 -1 -2 -3 -5 -6 -7 -8 -8 -9 -9 -10 -10 -11 -11 -11 -12 -12 -13 -13 -14 -14 -14 -14 -14 -15 -15 -15 -15 -15 -15 -15 -15 -15 -14 -14 -14 -14
2 2 1 1 1 -0 -1 -2 -3 -4 -6 -7 -8 -8 -9 -9 -10 -10 -10 -11 -11 -12 -12 -12 -13 -13 -14 -14 -14 -14 -14 -14 -15 -15 -15 -15 -15 -15 -15 -15 -15 -15 -15 -14
2 2 1 0 -0 -1 -2 -3 -4 -5 -7 -8 -8 -8 -9 -9 -10 -10 -11 -11 -11 -12 -12 -12 -13 -13 -13 -14 -14 -14 -14 -14 -15 -14 -15 -15 -15 -15 -15 -15 -15 -15 -15 -15
1 1 0 -0 -1 -2 -3 -4 -5 -6 -7 -8 -8 -9 -9 -9 -10 -10 -11 -11 -11 -11 -12 -12 -12 -13 -13 -14 -14 -14 -14 -14 -14 -14 -14 -14 -15 -15 -15 -15 -15 -15 -15 -15
1 1 0 -0 -2 -3 -4 -5 -6 -7 -7 -8 -8 -9 -9 -10 -10 -10 -11 -11 -11 -11 -12 -12 -12 -13 -13 -14 -14 -13 -13 -14 -14 -14 -14 -14 -15 -15 -15 -15 -15 -15 -15 -15
1 1 0 -1 -2 -3 -4 -5 -6 -7 -8 -8 -9 -9 -10 -10 -10 -10 -10 -10 -11 -11 -12 -12 -12 -12 -13 -13 -13 -13 -13 -13 -14 -14 -14 -15 -15 -15 -15 -15 -15 -15 -15 -15
0 0 -1 -2 -3 -4 -5 -6 -7 -8 -8 -8 -9 -9 -9 -10 -10 -10 -10 -10 -10 -10 -11 -11 -11 -12 -13 -12 -12 -13 -13 -13 -14 -14 -15 -15 -15 -15 -15 -16 -16 -16 -16 -15
-0 -1 -1 -2 -3 -4 -5 -6 -7 -8 -8 -9 -9 -9 -10 -10 -10 -10 -10 -10 -10 -10 -10 -10 -11 -12 -11 -11 -12 -12 -13 -13 -13 -14 -15 -15 -15 -15 -16 -16 -16 -16 -16 -16
-0 -1 -2 -3 -4 -5 -6 -7 -7 -8 -8 -9 -9 -9 -9 -9 -9 -9 -9 -9 -10 -10 -10 -11 -11 -10 -10 -11 -12 -11 -11 -12 -13 -13 -14 -15 -15 -15 -15 -15 -15 -15 -16 -16
-1 -2 -3 -4 -4 -5 -6 -7 -8 -8 -9 -9 -9 -9 -9 -9 -9 -9 -9 -9 -9 -9 -10 -10 -10 -10 -11 -11 -10 -10 -11 -12 -13 -13 -14 -15 -15 -15 -15 -15 -15 -15 -15 -15
-2 -3 -3 -4 -5 -6 -7 -7 -8 -8 -9 -9 -9 -9 -9 -9 -8 -9 -9 -9 -9 -9 -9 -9 -9 -10 -11 -10 -9 -10 -11 -12 -12 -13 -14 -14 -14 -15 -15 -15 -15 -15 -15 -15
-3 -3 -4 -5 -5 -6 -7 -8 -8 -8 -9 -9 -9 -9 -9 -9 -9 -9 -8 -9 -8 -9 -9 -9 -9 -10 -9 -9 -9 -10 -11 -12 -12 -13 -14 -14 -14 -15 -15 -15 -15 -15 -15 -15
-3 -4 -4 -5 -6 -7 -7 -8 -8 -8 -9 -9 -9 -8 -8 -8 -8 -9 -9 -8 -8 -8 -8 -9 -9 -9 -9 -9 -9 -10 -11 -11 -12 -13 -13 -13 -14 -14 -15 -15 -15 -15 -15 -15
-4 -4 -5 -5 -6 -7 -7 -8 -8 -8 -9 -9 -8 -8 -9 -9 -8 -8 -8 -8 -8 -8 -8 -8 -9 -9 -9 -9 -9 -10 -10 -11 -12 -12 -12 -13 -13 -13 -14 -14 -15 -15 -15 -15
-4 -4 -5 -6 -6 -7 -7 -8 -8 -8 -8 -8 -8 -8 -9 -8 -8 -8 -8 -8 -8 -8 -8 -8 -8 -9 -9 -9 -9 -9 -10 -10 -11 -12 -12 -12 -12 -12 -13 -13 -14 -14 -15 -15
-4 -5 -5 -6 -6 -7 -8 -8 -8 -8 -8 -8 -8 -8 -8 -8 -8 -8 -7 -7 -7 -7 -8 -8 -8 -8 -9 -9 -9 -9 -9 -10 -10 -11 -11 -12 -12 -12 -12 -13 -13 -13 -14 -14

GEFSNGP_850_meantemp_030.txt.gz
Temperature
4 3 4 3 3 3 3 2 1 1 1 0 -1 -1 -0 -1 -2 -3 -5 -6 -7 -8 -8 -9 -9 -9 -10 -10 -10 -11 -11 -11 -11 -11 -11 -11 -11 -11 -10 -10 -10 -9 -9 -8
4 2 3 3 2 3 2 2 1 1 -0 1 1 0 -1 -2 -3 -4 -6 -7 -8 -8 -9 -9 -10 -10 -10 -11 -11 -11 -11 -11 -12 -12 -12 -12 -12 -12 -11 -11 -10 -10 -10 -9
3 2 3 2 2 2 2 2 1 0 -0 0 -1 -1 -2 -3 -4 -6 -7 -7 -8 -9 -9 -10 -10 -11 -11 -11 -12 -12 -12 -12 -12 -13 -13 -13 -13 -12 -12 -12 -11 -11 -10 -10
1 2 4 3 2 2 2 1 0 0 -0 0 -1 -1 -2 -4 -5 -6 -7 -8 -9 -9 -9 -10 -11 -11 -11 -12 -12 -12 -12 -12 -13 -13 -13 -13 -13 -13 -13 -12 -12 -12 -11 -11
-0 2 2 2 2 2 2 1 0 0 0 -0 -1 -2 -3 -4 -5 -7 -8 -9 -9 -9 -10 -10 -11 -11 -11 -12 -12 -12 -13 -13 -13 -14 -14 -14 -14 -14 -13 -13 -13 -12 -12 -11
-1 3 4 3 2 2 1 -0 1 1 -0 -1 -2 -4 -4 -5 -6 -7 -8 -9 -9 -9 -10 -10 -11 -11 -12 -12 -13 -13 -13 -13 -14 -14 -14 -14 -14 -14 -14 -14 -13 -13 -12 -12
-1 -0 0 1 2 2 0 0 1 0 -0 -2 -3 -4 -5 -6 -7 -8 -8 -9 -9 -9 -10 -11 -11 -11 -12 -12 -13 -13 -13 -13 -13 -14 -14 -14 -14 -14 -14 -14 -14 -13 -13 -12
-1 -1 0 2 1 -0 0 1 0 -0 -1 -3 -4 -5 -6 -7 -8 -8 -8 -9 -9 -9 -10 -10 -11 -12 -12 -12 -13 -13 -13 -13 -13 -13 -14 -14 -14 -14 -14 -14 -14 -14 -14 -13
-0 1 1 2 2 1 1 1 -0 -1 -2 -4 -5 -6 -7 -7 -8 -8 -8 -9 -9 -9 -10 -10 -11 -12 -12 -12 -13 -13 -13 -13 -13 -13 -13 -14 -14 -14 -14 -14 -14 -15 -14 -14
-1 -1 1 1 1 1 1 -0 -1 -2 -3 -4 -6 -7 -7 -7 -8 -8 -8 -9 -9 -9 -10 -10 -10 -11 -12 -12 -13 -13 -13 -12 -13 -13 -13 -14 -14 -14 -15 -15 -15 -15 -15 -14
-1 -0 1 1 1 1 0 -1 -2 -3 -4 -5 -6 -7 -7 -7 -8 -8 -9 -9 -9 -10 -10 -10 -10 -11 -11 -12 -12 -12 -12 -12 -13 -14 -14 -14 -14 -15 -15 -15 -15 -14 -14 -14
-0 1 1 1 1 0 -0 -1 -2 -4 -5 -5 -6 -7 -7 -8 -8 -8 -9 -9 -9 -9 -10 -10 -10 -11 -11 -12 -12 -12 -12 -13 -14 -14 -14 -15 -15 -15 -14 -15 -14 -14 -14 -14
2 2 2 1 0 -0 -1 -2 -3 -4 -5 -6 -6 -7 -7 -8 -8 -8 -8 -9 -9 -10 -10 -10 -10 -11 -11 -11 -11 -12 -12 -13 -14 -14 -14 -15 -15 -15 -14 -15 -15 -15 -15 -15
2 2 1 0 0 -0 -1 -2 -4 -5 -6 -6 -7 -7 -7 -8 -8 -8 -8 -9 -9 -10 -10 -10 -10 -10 -11 -11 -11 -11 -12 -13 -14 -14 -14 -14 -15 -15 -15 -15 -15 -15 -15 -15
1 1 1 0 -0 -1 -2 -3 -5 -5 -6 -6 -7 -7 -7 -8 -8 -8 -8 -9 -9 -9 -10 -10 -10 -10 -10 -10 -11 -11 -12 -13 -14 -14 -14 -15 -15 -15 -15 -15 -16 -16 -16 -16
1 1 0 0 -0 -1 -3 -4 -5 -5 -6 -7 -7 -7 -7 -8 -8 -8 -9 -9 -9 -9 -9 -9 -9 -10 -10 -10 -11 -11 -12 -13 -14 -14 -14 -15 -15 -15 -15 -15 -16 -16 -16 -16
1 0 0 -0 -1 -2 -3 -4 -5 -6 -6 -6 -7 -7 -7 -7 -8 -8 -8 -8 -9 -9 -9 -9 -9 -9 -10 -10 -10 -11 -12 -12 -13 -13 -14 -15 -15 -15 -15 -15 -15 -15 -16 -15
1 1 0 -0 -1 -2 -3 -4 -5 -6 -6 -6 -7 -7 -7 -7 -7 -8 -8 -8 -8 -8 -8 -8 -9 -10 -10 -10 -10 -11 -11 -12 -12 -13 -14 -15 -15 -15 -15 -15 -15 -15 -16 -16
0 0 -0 -1 -1 -2 -3 -4 -5 -6 -6 -6 -7 -7 -7 -7 -8 -8 -8 -8 -8 -8 -8 -8 -9 -9 -9 -10 -10 -11 -11 -11 -12 -13 -14 -15 -15 -15 -15 -15 -15 -15 -15 -16
0 -0 -0 -1 -2 -3 -4 -5 -5 -6 -6 -6 -7 -7 -7 -7 -8 -7 -7 -7 -8 -8 -8 -9 -9 -9 -9 -10 -10 -10 -10 -11 -12 -13 -14 -14 -14 -15 -15 -15 -15 -15 -15 -15
0 -0 -1 -2 -3 -3 -4 -5 -5 -6 -6 -6 -7 -7 -7 -7 -8 -7 -7 -7 -7 -7 -8 -8 -8 -9 -10 -10 -9 -9 -10 -11 -12 -13 -13 -13 -14 -14 -15 -15 -15 -15 -15 -15
-0 -1 -1 -2 -3 -4 -5 -5 -6 -6 -6 -6 -7 -7 -7 -7 -7 -7 -7 -7 -7 -7 -8 -8 -8 -9 -9 -9 -9 -9 -10 -11 -12 -13 -13 -13 -13 -14 -14 -15 -15 -15 -15 -15
-0 -1 -2 -3 -3 -4 -5 -5 -6 -6 -6 -7 -7 -7 -7 -7 -7 -7 -7 -7 -7 -7 -8 -8 -8 -9 -9 -9 -9 -9 -9 -10 -11 -12 -12 -12 -13 -13 -13 -14 -14 -14 -15 -15
-1 -2 -2 -3 -4 -4 -5 -5 -6 -6 -6 -7 -7 -7 -7 -7 -7 -7 -7 -7 -7 -7 -7 -7 -8 -8 -9 -9 -9 -9 -9 -9 -10 -11 -11 -12 -12 -12 -13 -13 -13 -14 -14 -14
-1 -2 -3 -3 -4 -4 -5 -6 -6 -6 -6 -7 -7 -7 -7 -7 -7 -7 -7 -7 -7 -7 -7 -7 -7 -8 -8 -9 -9 -9 -9 -9 -10 -10 -10 -11 -11 -11 -12 -12 -13 -13 -13 -13
-2 -2 -3 -4 -4 -5 -5 -5 -6 -6 -6 -7 -7 -7 -7 -7 -7 -7 -7 -7 -7 -7 -7 -7 -7 -7 -8 -8 -9 -9 -9 -9 -9 -9 -10 -10 -10 -10 -11 -11 -11 -12 -12 -13
-2 -3 -4 -4 -4 -5 -5 -6 -6 -6 -6 -7 -7 -7 -7 -7 -7 -7 -7 -7 -7 -7 -7 -7 -7 -7 -8 -8 -9 -9 -9 -9 -9 -9 -9 -9 -10 -10 -10 -10 -10 -11 -11 -11

GEFSNGP_850_meantemp_036.txt.gz
Temperature
9 7 7 7 7 7 7 8 8 8 6 6 5 3 2 1 -1 -2 -4 -5 -6 -7 -8 -9 -9 -10 -10 -10 -11 -11 -11 -11 -12 -12 -12 -13 -13 -13 -13 -13 -13 -13 -12 -12
9 6 6 6 6 6 6 6 6 6 6 5 3 2 2 0 -2 -3 -5 -6 -7 -8 -9 -9 -10 -10 -10 -10 -10 -11 -11 -11 -12 -12 -12 -13 -13 -13 -13 -13 -13 -13 -13 -12
10 7 7 9 7 6 6 6 5 5 5 4 3 2 1 -2 -4 -5 -6 -7 -8 -9 -9 -10 -10 -10 -10 -10 -10 -10 -11 -11 -12 -12 -13 -13 -13 -13 -13 -14 -14 -13 -13 -13
8 9 9 8 5 5 5 5 4 4 4 3 2 0 -2 -4 -5 -6 -7 -8 -9 -9 -9 -10 -10 -10 -9 -10 -10 -10 -11 -11 -12 -13 -13 -13 -14 -14 -14 -14 -14 -14 -13 -13
7 10 11 6 4 4 5 5 4 3 3 2 0 0 -1 -5 -6 -7 -8 -9 -9 -9 -9 -9 -9 -9 -9 -10 -10 -10 -11 -12 -12 -13 -13 -14 -14 -14 -14 -14 -14 -14 -13 -13
6 8 10 8 4 3 4 5 3 2 2 1 -0 1 -1 -5 -7 -7 -8 -8 -8 -8 -9 -9 -9 -9 -9 -10 -10 -11 -11 -12 -12 -13 -14 -14 -14 -14 -14 -14 -14 -14 -14 -13
6 7 9 5 3 3 5 6 2 1 0 -1 -1 -2 -5 -6 -7 -7 -7 -7 -8 -8 -8 -9 -9 -9 -9 -10 -11 -11 -11 -12 -12 -13 -14 -14 -14 -14 -14 -14 -14 -14 -14 -13
6 6 8 3 3 5 5 2 1 0 -1 -2 -3 -5 -6 -6 -7 -7 -7 -7 -7 -8 -8 -9 -9 -9 -10 -10 -10 -11 -11 -12 -13 -13 -14 -14 -14 -14 -14 -14 -14 -14 -14 -13
8 8 4 3 3 2 2 1 -0 -1 -2 -3 -4 -5 -6 -7 -7 -7 -7 -7 -8 -8 -8 -8 -9 -9 -10 -10 -10 -11 -11 -12 -13 -14 -14 -14 -14 -14 -14 -14 -14 -14 -13 -13
5 5 2 1 1 1 1 1 -0 -1 -2 -3 -4 -5 -6 -6 -7 -7 -7 -7 -8 -8 -8 -8 -9 -9 -10 -10 -10 -11 -12 -13 -13 -14 -14 -14 -14 -14 -14 -14 -14 -14 -13 -13
5 3 1 0 0 1 1 0 -0 -1 -3 -4 -5 -5 -6 -6 -7 -7 -7 -7 -8 -8 -8 -8 -9 -9 -9 -10 -10 -11 -12 -13 -13 -14 -14 -14 -14 -14 -14 -14 -14 -14 -14 -14
7 4 3 2 1 1 1 0 -1 -2 -3 -4 -5 -5 -6 -6 -7 -7 -7 -7 -7 -8 -8 -8 -9 -9 -9 -10 -10 -11 -12 -13 -13 -14 -14 -14 -14 -14 -15 -15 -14 -14 -14 -14
3 3 3 2 1 1 0 -0 -1 -2 -3 -4 -5 -6 -6 -6 -6 -7 -7 -7 -7 -8 -8 -8 -9 -9 -9 -9 -10 -11 -12 -13 -13 -14 -14 -15 -15 -15 -15 -15 -15 -15 -15 -14
3 3 2 1 1 0 -0 -1 -2 -3 -4 -5 -5 -6 -6 -6 -6 -7 -7 -7 -7 -8 -8 -8 -8 -9 -9 -9 -10 -11 -12 -12 -13 -14 -14 -15 -15 -15 -15 -15 -15 -15 -15 -15
2 3 3 2 1 0 -1 -1 -2 -3 -4 -5 -5 -6 -6 -6 -6 -7 -7 -7 -7 -7 -8 -8 -8 -9 -9 -9 -10 -11 -11 -12 -13 -14 -14 -14 -15 -15 -15 -15 -15 -15 -15 -15
2 2 2 1 1 -0 -1 -2 -3 -3 -4 -5 -5 -6 -6 -6 -6 -7 -7 -7 -7 -7 -8 -8 -8 -8 -9 -9 -10 -10 -11 -11 -12 -13 -14 -14 -15 -15 -15 -15 -15 -15 -15 -15
2 1 1 1 0 -0 -1 -2 -3 -3 -4 -5 -5 -6 -6 -6 -6 -6 -6 -7 -7 -7 -7 -8 -8 -8 -9 -9 -9 -10 -10 -10 -11 -12 -13 -14 -14 -15 -15 -15 -15 -15 -15 -15
4 3 3 2 1 0 -1 -2 -3 -4 -4 -5 -5 -5 -6 -6 -6 -6 -6 -6 -6 -7 -7 -7 -8 -8 -9 -9 -9 -10 -10 -10 -11 -12 -12 -13 -13 -14 -14 -15 -15 -15 -15 -15
2 2 1 1 0 -0 -1 -2 -3 -4 -4 -5 -5 -5 -6 -6 -6 -6 -6 -6 -6 -6 -6 -7 -7 -8 -8 -9 -9 -9 -9 -10 -10 -11 -12 -12 -13 -13 -14 -14 -14 -15 -15 -15
1 1 1 0 -0 -1 -1 -2 -3 -4 -4 -5 -5 -5 -6 -6 -6 -6 -6 -6 -6 -6 -6 -7 -7 -7 -8 -9 -9 -9 -9 -9 -10 -10 -11 -11 -12 -12 -13 -13 -13 -14 -14 -14
1 1 0 0 -0 -1 -2 -3 -3 -4 -4 -5 -5 -5 -6 -6 -6 -6 -6 -6 -6 -6 -6 -7 -7 -7 -8 -9 -9 -9 -9 -9 -9 -10 -10 -11 -11 -11 -12 -12 -12 -13 -13 -13
1 1 0 -0 -1 -1 -2 -3 -4 -4 -5 -5 -5 -5 -6 -6 -6 -6 -6 -6 -6 -6 -6 -7 -7 -7 -8 -8 -8 -9 -9 -9 -9 -10 -10 -10 -10 -10 -11 -11 -11 -12 -12 -13
1 1 0 -0 -1 -2 -2 -3 -4 -4 -5 -5 -5 -5 -6 -6 -6 -5 -5 -6 -6 -6 -6 -6 -7 -7 -7 -8 -8 -8 -9 -9 -9 -10 -10 -10 -10 -10 -10 -10 -10 -11 -11 -11
1 0 -0 -1 -2 -2 -3 -3 -4 -4 -5 -5 -5 -6 -6 -6 -6 -5 -6 -6 -6 -6 -6 -6 -6 -7 -7 -7 -7 -8 -8 -9 -9 -9 -10 -10 -10 -10 -10 -10 -10 -10 -10 -10
1 0 -0 -1 -1 -2 -3 -4 -4 -4 -5 -5 -5 -6 -6 -6 -6 -6 -6 -6 -6 -6 -6 -6 -6 -6 -7 -7 -7 -7 -8 -8 -9 -9 -9 -9 -10 -10 -10 -10 -10 -10 -10 -10
1 0 -0 -1 -1 -2 -3 -3 -4 -4 -5 -5 -5 -6 -6 -6 -6 -6 -6 -6 -6 -6 -6 -6 -6 -6 -6 -7 -7 -7 -8 -8 -8 -9 -9 -9 -9 -9 -10 -10 -10 -10 -10 -10
0 -0 -1 -2 -2 -3 -3 -3 -4 -4 -4 -5 -5 -6 -6 -6 -6 -6 -6 -6 -6 -6 -6 -6 -6 -6 -6 -7 -7 -7 -7 -8 -8 -8 -8 -9 -9 -9 -10 -10 -10 -10 -10 -10

GEFSNGP_850_meantemp_042.txt.gz
Temperature
13 12 11 10 10 10 9 9 8 8 8 6 5 5 4 3 0 -1 -3 -4 -5 -5 -6 -6 -7 -7 -7 -8 -8 -9 -9 -10 -10 -11 -12 -12 -12 -13 -13 -13 -13 -13 -13 -13
11 10 9 8 8 9 8 8 8 8 7 5 5 5 3 1 -1 -2 -4 -4 -5 -6 -6 -6 -7 -7 -8 -8 -8 -9 -10 -10 -11 -12 -12 -12 -13 -13 -13 -13 -13 -13 -13 -13
9 11 10 9 10 8 8 8 8 7 6 5 5 4 2 -0 -2 -3 -4 -5 -5 -6 -6 -7 -7 -8 -8 -8 -9 -9 -10 -11 -12 -12 -12 -12 -13 -13 -13 -13 -13 -13 -13 -13
8 9 9 10 7 9 9 9 8 7 6 5 4 2 -0 -2 -2 -4 -5 -5 -5 -6 -6 -7 -7 -8 -8 -8 -9 -10 -10 -11 -12 -12 -12 -13 -13 -13 -13 -13 -13 -13 -13 -13
7 8 10 8 7 7 7 7 7 6 5 4 3 1 -2 -3 -3 -4 -5 -5 -6 -6 -6 -7 -7 -8 -8 -8 -9 -10 -11 -11 -12 -12 -13 -13 -13 -13 -13 -13 -13 -13 -13 -13
7 7 8 9 7 7 6 5 6 5 4 3 2 -1 -2 -3 -4 -4 -5 -5 -5 -6 -6 -7 -7 -8 -8 -9 -10 -10 -11 -11 -12 -12 -13 -13 -13 -13 -13 -13 -13 -13 -13 -13
6 6 8 6 6 6 5 5 5 4 3 2 1 -1 -2 -4 -4 -4 -5 -5 -5 -6 -6 -7 -7 -8 -8 -9 -10 -10 -11 -11 -12 -12 -13 -13 -13 -13 -13 -14 -13 -13 -13 -13
7 7 7 6 4 4 5 4 4 3 2 1 -1 -2 -3 -4 -4 -4 -5 -5 -5 -6 -6 -7 -7 -8 -9 -9 -10 -10 -10 -11 -12 -12 -13 -13 -13 -13 -14 -14 -13 -13 -13 -13
9 8 7 6 6 5 5 4 3 2 1 0 -1 -3 -3 -4 -4 -4 -5 -5 -6 -6 -6 -7 -8 -8 -9 -9 -9 -10 -10 -11 -12 -12 -13 -13 -13 -14 -14 -14 -13 -14 -13 -13
8 7 6 6 5 4 4 3 2 2 1 -0 -2 -3 -3 -4 -4 -4 -5 -5 -6 -6 -6 -7 -7 -8 -9 -9 -9 -9 -10 -11 -12 -12 -13 -13 -13 -14 -14 -14 -13 -13 -13 -13
7 7 6 5 4 3 3 2 2 1 0 -1 -2 -3 -3 -4 -4 -4 -5 -5 -6 -6 -6 -7 -7 -8 -9 -9 -9 -9 -10 -11 -11 -12 -13 -13 -13 -14 -14 -14 -13 -13 -13 -13
7 8 6 5 4 3 2 2 2 1 -0 -1 -2 -3 -3 -4 -4 -5 -5 -5 -6 -6 -6 -7 -7 -8 -8 -8 -9 -9 -10 -10 -11 -12 -12 -13 -13 -13 -14 -14 -14 -14 -13 -13
8 7 7 5 3 2 2 2 1 1 -0 -1 -2 -3 -3 -4 -4 -5 -5 -5 -6 -6 -6 -7 -7 -8 -8 -8 -8 -9 -10 -10 -11 -11 -12 -13 -13 -13 -14 -14 -14 -14 -14 -13
7 6 4 3 2 2 2 1 1 0 -1 -2 -2 -3 -3 -4 -4 -5 -5 -5 -5 -6 -6 -7 -7 -7 -8 -8 -8 -9 -9 -10 -10 -11 -11 -12 -12 -13 -13 -14 -14 -14 -14 -14
5 5 5 4 2 1 1 1 1 -0 -1 -2 -2 -3 -3 -4 -4 -5 -5 -5 -5 -6 -6 -6 -7 -7 -7 -8 -8 -9 -9 -10 -10 -10 -11 -11 -12 -12 -13 -13 -13 -14 -14 -14
3 4 4 3 2 2 1 1 1 -0 -1 -2 -2 -3 -3 -4 -4 -5 -5 -5 -5 -5 -6 -6 -6 -7 -7 -8 -8 -8 -9 -9 -10 -10 -10 -11 -11 -11 -12 -12 -13 -13 -13 -14
4 3 2 2 3 2 2 1 1 -0 -1 -2 -2 -3 -4 -4 -4 -5 -5 -5 -5 -5 -6 -6 -6 -7 -7 -7 -8 -8 -9 -9 -9 -9 -10 -10 -11 -11 -11 -11 -12 -12 -12 -13
6 7 6 5 4 3 2 1 0 -0 -1 -2 -3 -3 -4 -4 -4 -5 -5 -5 -5 -5 -5 -6 -6 -6 -7 -7 -8 -8 -8 -8 -9 -9 -9 -10 -10 -10 -11 -11 -11 -11 -11 -12
5 4 4 4 3 3 2 1 0 -1 -1 -2 -3 -3 -4 -4 -4 -4 -5 -5 -5 -5 -5 -5 -6 -6 -6 -7 -7 -8 -8 -8 -8 -9 -9 -9 -10 -10 -10 -10 -11 -11 -11 -11
4 4 3 3 3 2 1 1 0 -1 -1 -2 -3 -3 -4 -4 -4 -4 -4 -5 -5 -5 -5 -5 -5 -6 -6 -6 -7 -7 -7 -8 -8 -8 -9 -9 -9 -10 -10 -10 -10 -10 -10 -10
4 4 3 3 2 2 1 1 -0 -1 -1 -2 -3 -3 -4 -4 -4 -4 -4 -4 -5 -5 -5 -5 -5 -5 -6 -6 -7 -7 -7 -7 -8 -8 -8 -9 -9 -9 -10 -10 -10 -10 -10 -10
4 4 3 2 2 2 1 0 -0 -1 -2 -2 -3 -3 -4 -4 -4 -4 -4 -5 -5 -5 -5 -5 -5 -5 -6 -6 -6 -6 -6 -7 -7 -7 -8 -8 -9 -9 -10 -10 -10 -10 -10 -10
4 3 3 2 2 2 1 0 -0 -1 -2 -2 -3 -3 -3 -4 -4 -4 -4 -5 -5 -5 -5 -5 -5 -5 -6 -6 -6 -6 -6 -6 -7 -7 -8 -8 -8 -9 -10 -10 -10 -10 -11 -11
4 3 3 2 2 1 1 0 -0 -1 -2 -2 -3 -3 -4 -4 -4 -4 -5 -5 -5 -5 -5 -5 -5 -5 -6 -6 -6 -6 -6 -6 -7 -7 -7 -7 -8 -8 -9 -10 -10 -10 -11 -11
4 3 2 2 2 1 1 0 -1 -1 -2 -2 -3 -3 -4 -4 -4 -5 -5 -5 -5 -5 -5 -5 -5 -5 -6 -6 -6 -6 -6 -6 -7 -7 -7 -7 -7 -8 -8 -9 -10 -10 -11 -11
4 3 3 2 2 2 1 0 -0 -1 -2 -2 -3 -3 -4 -4 -4 -5 -5 -5 -5 -5 -5 -5 -5 -5 -6 -6 -6 -6 -6 -6 -7 -7 -7 -7 -7 -8 -8 -8 -9 -10 -10 -11
4 3 2 2 1 1 1 0 -0 -1 -1 -2 -2 -3 -4 -4 -4 -5 -5 -5 -5 -5 -5 -5 -6 -6 -6 -6 -6 -6 -6 -7 -7 -7 -7 -7 -7 -7 -8 -8 -9 -9 -10 -10